Location: Kaltenbach
(49.2000°N, 7.7500°E)
Time: 17:19:45
(UTC+00:00)

Cosmos 2227 Rocket - Pass Details

Date: 24 January 2020
Orbit: 840 x 844 km, 71.0° (Epoch: 25 February)

Event Time Altitude Azimuth Distance (km) Brightness Sun altitude
Rises 17:51:09 0° 209° (SSW) 3,385 5.9 -16.0°
Reaches altitude 10° 17:53:35 10° 210° (SSW) 2,454 5.2 -16.4°
Maximum altitude 17:59:14 82° 298° (WNW) 856 2.2 -17.3°
Enters shadow 18:04:26 13° 27° (NNE) 2,286 4.1 -18.2°
